Tracking 25650 objects as of 16-May-2022
HD Live streaming from Space Station
objects crossing your sky now

COSMOS 2251 DEB

Track COSMOS 2251 DEB now!
10-day predictions


NORAD ID: 35284
Int'l Code: 1993-036AJN
Perigee: 765.9 km
Apogee: 790.8 km
Inclination: 74.0 °
Period: 100.3 minutes
Semi major axis: 7149 km
RCS: 0.0089 m2 (small)
Launch date: June 16, 1993
Source: Commonwealth of Independent States (former USSR) (CIS)
Launch site: PLESETSK MISSILE AND SPACE COMPLEX (PKMTR)

Note: This is SATELLITE DEBRIS
aabbcc
Your satellite tracking list
Your tracking list is empty




NASA's NSSDC Master Catalog

Two Line Element Set (TLE):
1 35284U 93036AJN 22135.81000866  .00000374  00000-0  13716-3 0  9990
2 35284  74.0479 146.0288 0017394 194.6190 340.4144 14.36167280467519
Source of the keplerian elements: AFSPC